DW7898 Weather Reports


time (UTC)temp
F
wind
direction
speed
knots
gust
knots
rain 1hr
in
rain 24hr
in
rain mn
in
humidity
%
barometer
mb
20260906145356 91 126 4.3 8.7 0.00 0.00 0.00 38 1021.2
20260906144348 92 114 4.3 7.8 0.00 0.00 0.00 37 1021.3
20260906143403 92 140 4.3 7.0 0.00 0.00 0.00 36 1021.5
20260906142351 91 118 1.7 7.8 0.00 0.00 0.00 38 1021.6
20260906141346 91 137 4.3 9.6 0.00 0.00 0.00 38 1021.7
20260906140402 90 101 5.2 8.7 0.00 0.00 0.00 39 1021.7
20260906135350 90 122 6.1 11.3 0.00 0.00 0.00 40 1021.9
20260906134347 89 127 6.1 11.3 0.00 0.00 0.00 42 1021.9
20260906133348 90 119 3.5 10.4 0.00 0.00 0.00 42 1022.0
20260906132357 90 135 6.1 10.4 0.00 0.00 0.00 41 1021.9
20260906131357 90 171 3.5 9.6 0.00 0.00 0.00 40 1022.0
20260906130349 90 108 7.0 11.3 0.00 0.00 0.00 39 1022.1
20260906125403 91 159 4.3 12.2 0.00 0.00 0.00 38 1022.0
20260906124350 90 166 3.5 9.6 0.00 0.00 0.00 38 1022.0
20260906123347 90 118 5.2 10.4 0.00 0.00 0.00 41 1022.2
20260906122352 90 127 4.3 12.2 0.00 0.00 0.00 41 1022.2
20260906121342 90 135 3.5 10.4 0.00 0.00 0.00 40 1022.3
20260906120402 90 119 7.8 12.2 0.00 0.00 0.00 39 1022.2
20260906115352 91 84 6.1 10.4 0.00 0.00 0.00 38 1022.2
20260906114403 92 115 4.3 8.7 0.00 0.00 0.00 36 1022.4
20260906113402 92 104 4.3 7.8 0.00 0.00 0.00 34 1022.2
20260906112340 92 159 1.7 7.8 0.00 0.00 0.00 34 1022.3
20260906111355 91 188 2.6 7.0 0.00 0.00 0.00 35 1022.3
20260906110349 91 134 5.2 8.7 0.00 0.00 0.00 35 1022.4
20260906105359 92 171 2.6 7.8 0.00 0.00 0.00 36 1022.6
20260906104357 92 107 3.5 8.7 0.00 0.00 0.00 35 1022.6
20260906103353 92 203 2.6 5.2 0.00 0.00 0.00 35 1022.6
20260906102347 91 130 2.6 6.1 0.00 0.00 0.00 37 1022.6
20260906101349 91 120 2.6 4.3 0.00 0.00 0.00 38 1022.6
20260906100349 90 277 1.7 4.3 0.00 0.00 0.00 38 1022.7
20260906095345 89 314 0.9 3.5 0.00 0.00 0.00 38 1022.7
20260906094400 88 316 0.0 4.3 0.00 0.00 0.00 40 1022.8
20260906093400 88 276 2.6 3.5 0.00 0.00 0.00 41 1022.9
20260906092346 87 277 0.9 4.3 0.00 0.00 0.00 43 1022.9
20260906091348 86 288 0.0 2.6 0.00 0.00 0.00 45 1022.8
20260906090346 86 287 0.0 0.9 0.00 0.00 0.00 46 1022.8
20260906085355 84 287 0.9 1.7 0.00 0.00 0.00 48 1022.8
20260906084354 82 287 0.0 2.6 0.00 0.00 0.00 51 1022.7
20260906083351 81 190 0.0 0.0 0.00 0.00 0.00 52 1022.6
20260906082343 81 95 0.0 0.0 0.00 0.00 0.00 53 1022.6
20260906081356 80 94 0.0 0.0 0.00 0.00 0.00 55 1022.5
20260906080354 79 95 0.0 0.0 0.00 0.00 0.00 57 1022.4
20260906075343 78 94 0.0 0.0 0.00 0.00 0.00 59 1022.5
20260906074342 77 94 0.0 0.0 0.00 0.00 0.00 61 1022.4
20260906073348 77 94 0.0 0.0 0.00 0.00 0.00 62 1022.3
20260906072345 77 97 0.0 0.0 0.00 0.00 0.00 64 1022.3
20260906071344 76 97 0.0 0.0 0.00 0.00 0.00 65 1022.3
20260906070345 74 97 0.0 0.0 0.00 0.00 0.00 67 1022.3
20260906065402 73 97 0.0 0.0 0.00 0.00 0.00 68 1022.1
20260906064359 73 97 0.0 0.0 0.00 0.00 0.00 69 1022.1
20260906063357 73 97 0.0 0.0 0.00 0.00 0.00 70 1022.1
20260906061357 72 100 0.0 0.0 0.00 0.00 0.00 71 1022.0
20260906060357 72 100 0.0 0.0 0.00 0.00 0.00 70 1021.8
20260906055356 71 100 0.0 2.6 0.00 0.00 0.00 71 1021.8
20260906054357 71 101 0.0 1.7 0.00 0.00 0.00 71 1021.6
20260906053352 71 102 0.9 3.5 0.00 0.00 0.00 70 1021.6
20260906052346 72 110 1.7 3.5 0.00 0.00 0.00 70 1021.5
20260906051344 71 118 0.0 1.7 0.00 0.00 0.00 69 1021.4
20260906050343 72 118 0.0 2.6 0.00 0.00 0.00 69 1021.4
20260906045341 72 119 1.7 2.6 0.00 0.00 0.00 68 1021.3
20260906044402 72 121 0.9 2.6 0.00 0.00 0.00 67 1021.3
20260906043403 73 121 0.0 0.0 0.00 0.00 0.00 67 1021.4
20260906042359 73 121 0.0 0.0 0.00 0.00 0.00 66 1021.5
20260906041400 73 121 0.0 0.0 0.00 0.00 0.00 66 1021.4
20260906040401 73 121 0.0 0.0 0.00 0.00 0.00 66 1021.5
20260906035353 73 121 0.0 0.0 0.00 0.00 0.00 66 1021.5
20260906034348 73 121 0.0 0.0 0.00 0.00 0.00 66 1021.6
20260906033344 73 121 0.0 1.7 0.00 0.00 0.00 65 1021.6
20260906032343 73 121 0.9 1.7 0.00 0.00 0.00 65 1021.7
20260906031344 74 121 0.0 0.0 0.00 0.00 0.00 66 1021.8
20260906030347 74 121 0.0 0.0 0.00 0.00 0.00 65 1021.7
20260906025345 74 121 0.0 0.0 0.00 0.00 0.00 64 1021.8
20260906024345 74 121 0.0 0.0 0.00 0.00 0.00 64 1021.8
20260906023344 74 121 0.0 0.0 0.00 0.00 0.00 64 1021.8
20260906022400 75 121 0.0 0.0 0.00 0.00 0.00 62 1021.8
20260906021358 75 121 0.0 0.0 0.00 0.00 0.00 62 1021.9
20260906020341 75 121 0.0 0.0 0.00 0.00 0.00 62 1021.9
20260906015359 75 121 0.0 0.0 0.00 0.00 0.00 61 1022.1
20260906014342 75 121 0.0 0.0 0.00 0.00 0.00 61 1022.0
20260906013345 76 121 0.0 0.9 0.00 0.00 0.00 62 1022.1
20260906012359 76 121 0.0 1.7 0.00 0.00 0.00 61 1022.3
20260906011356 76 121 0.0 1.7 0.00 0.00 0.00 61 1022.2
20260906010357 76 121 0.0 0.9 0.00 0.00 0.00 61 1022.3
20260906005347 76 121 0.0 0.9 0.00 0.00 0.00 61 1022.3
20260906004350 76 121 0.9 1.7 0.00 0.00 0.00 62 1022.3
20260906003350 77 121 0.0 0.0 0.00 0.00 0.00 64 1022.4
20260906002343 77 121 0.0 0.0 0.00 0.00 0.00 65 1022.6
20260906001346 77 121 0.0 0.0 0.00 0.00 0.00 64 1022.7
20260906000348 77 121 0.0 0.0 0.00 0.00 0.00 64 1022.6
20260905235348 77 121 0.0 0.0 0.00 0.00 0.00 63 1022.6
20260905234347 77 121 0.0 1.7 0.00 0.00 0.00 62 1022.8
20260905233344 78 121 0.0 1.7 0.00 0.00 0.00 63 1022.8
20260905232358 78 121 0.0 1.7 0.00 0.00 0.00 65 1022.9
20260905231352 78 121 0.0 1.7 0.00 0.00 0.00 64 1023.1
20260905230353 79 121 0.0 0.9 0.00 0.00 0.00 63 1023.1
20260905225348 79 121 0.0 0.0 0.00 0.00 0.00 62 1023.1
20260905224343 79 121 0.9 1.7 0.00 0.00 0.00 61 1023.1
20260905223343 79 121 0.0 0.9 0.00 0.00 0.00 60 1023.2
20260905222355 80 121 0.0 1.7 0.00 0.00 0.00 60 1023.2
20260905221355 80 121 0.0 1.7 0.00 0.00 0.00 60 1023.0
20260905220357 80 121 0.0 0.9 0.00 0.00 0.00 60 1023.1
20260905215349 80 121 0.0 1.7 0.00 0.00 0.00 60 1023.2
20260905214348 80 121 0.9 3.5 0.00 0.00 0.00 60 1023.2
20260905213350 80 121 2.6 3.5 0.00 0.00 0.00 59 1023.2
20260905212342 81 121 0.9 2.6 0.00 0.00 0.00 58 1023.2
20260905211342 81 121 1.7 3.5 0.00 0.00 0.00 57 1023.3
20260905210345 81 121 0.9 2.6 0.00 0.00 0.00 56 1023.4
20260905205402 81 121 1.7 3.5 0.00 0.00 0.00 55 1023.4
20260905204358 82 121 1.7 2.6 0.00 0.00 0.00 53 1023.4
20260905203353 82 121 1.7 2.6 0.00 0.00 0.00 53 1023.4
20260905202402 82 121 1.7 2.6 0.00 0.00 0.00 52 1023.5
20260905201356 83 121 0.0 0.0 0.00 0.00 0.00 52 1023.5
20260905200353 83 121 0.0 1.7 0.00 0.00 0.00 51 1023.4
20260905195358 83 121 0.0 3.5 0.00 0.00 0.00 49 1023.2
20260905194351 83 117 0.0 1.7 0.00 0.00 0.00 50 1023.3
20260905193344 83 117 0.9 3.5 0.00 0.00 0.00 51 1023.3
20260905192350 84 117 2.6 3.5 0.00 0.00 0.00 52 1023.3
20260905191351 84 118 0.0 1.7 0.00 0.00 0.00 59 1023.2
20260905190348 85 118 0.0 1.7 0.00 0.00 0.00 59 1023.2
20260905185354 85 118 0.0 0.9 0.00 0.00 0.00 58 1023.2
20260905184345 85 118 0.9 1.7 0.00 0.00 0.00 59 1023.1
20260905183403 85 118 2.6 3.5 0.00 0.00 0.00 59 1023.1
20260905182350 85 116 0.9 3.5 0.00 0.00 0.00 59 1023.0
20260905181402 85 115 1.7 4.3 0.00 0.00 0.00 58 1022.9
20260905180357 86 132 2.6 5.2 0.00 0.00 0.00 57 1022.8
20260905175351 86 137 2.6 5.2 0.00 0.00 0.00 54 1023.0
20260905174344 87 134 2.6 5.2 0.00 0.00 0.00 51 1022.9
20260905173401 87 154 2.6 5.2 0.00 0.00 0.00 51 1023.0
20260905172355 87 139 3.5 7.0 0.00 0.00 0.00 50 1022.9
20260905171346 87 123 4.3 7.8 0.00 0.00 0.00 49 1022.8
20260905165344 88 124 3.5 7.8 0.00 0.00 0.00 45 1022.8
20260905164355 89 130 4.3 9.6 0.00 0.00 0.00 41 1022.8
20260905163350 89 199 3.5 10.4 0.00 0.00 0.00 36 1022.8
20260905162347 90 111 4.3 8.7 0.00 0.00 0.00 35 1022.7
20260905161357 90 88 3.5 9.6 0.00 0.00 0.00 34 1022.8
20260905160348 90 135 1.7 8.7 0.00 0.00 0.00 36 1022.8
20260905155353 90 137 4.3 9.6 0.00 0.00 0.00 34 1022.7
20260905154402 89 124 6.1 10.4 0.00 0.00 0.00 34 1022.7
20260905153351 90 85 4.3 9.6 0.00 0.00 0.00 35 1022.8
20260905152343 90 108 4.3 12.2 0.00 0.00 0.00 33 1022.8
20260905151400 90 154 3.5 12.2 0.00 0.00 0.00 34 1023.0
20260905150348 91 221 1.7 9.6 0.00 0.00 0.00 35 1023.0